This is the latest recevied weather packets stored in our database for station/object K3JSE-2. If no packets are shown the sender has not sent any weather packets the latest 1 day(s).
| Time | Temp. | Humidity | Pressure | Rain* | Wind** | Luminosity | Snow |
|---|---|---|---|---|---|---|---|
| 1778007554 | 26.67° C | 37% | 1009.2 hPa | 0 mm | 1.34 m/s, 40° | - | - |
| 1778007403 | 26.67° C | 38% | 1009.1 hPa | 0 mm | 0.45 m/s, 70° | - | - |
| 1778007150 | 26.67° C | 36% | 1009.2 hPa | 0 mm | 0.89 m/s, 355° | - | - |
| 1778006856 | 26.67° C | 35% | 1009.2 hPa | 0 mm | 2.68 m/s, 242° | - | - |
| 1778006588 | 26.67° C | 36% | 1009.3 hPa | 0 mm | 4.02 m/s, 271° | - | - |
| 1778006318 | 26.67° C | 36% | 1009.3 hPa | 0 mm | 4.47 m/s, 295° | - | - |
| 1778006053 | 27.22° C | 38% | 1009.2 hPa | 0 mm | 1.34 m/s, 265° | - | - |
| 1778005763 | 26.67° C | 37% | 1009.4 hPa | 0 mm | 1.34 m/s, 311° | - | - |
| 1778005580 | 26.67° C | 37% | 1009.3 hPa | 0 mm | 6.26 m/s, 164° | - | - |
| 1778005513 | 26.67° C | 38% | 1009.2 hPa | 0 mm | 2.68 m/s, 329° | - | - |
| 1778005243 | 26.67° C | 38% | 1009.4 hPa | 0 mm | 0.89 m/s, 239° | - | - |
| 1778004953 | 26.67° C | 37% | 1009.4 hPa | 0 mm | 1.79 m/s, 287° | - | - |
| 1778004810 | 26.67° C | 39% | 1009.5 hPa | 0 mm | 1.79 m/s, 186° | - | - |
| 1778004698 | 26.67° C | 39% | 1009.4 hPa | 0 mm | 0.89 m/s, 0° | - | - |
| 1778004413 | 26.67° C | 39% | 1009.6 hPa | 0 mm | 1.79 m/s, 250° | - | - |
| 1778004143 | 27.22° C | 40% | 1009.5 hPa | 0 mm | 0 m/s | - | - |
| 1778004082 | 27.22° C | 43% | 1009.6 hPa | 0 mm | 1.34 m/s, 271° | - | - |
| 1778003868 | 26.67° C | 39% | 1009.7 hPa | 0 mm | 0.89 m/s, 243° | - | - |
| 1778003573 | 26.67° C | 39% | 1009.7 hPa | 0 mm | 1.79 m/s, 283° | - | - |
| 1778003409 | 26.67° C | 39% | 1009.6 hPa | 0 mm | 1.79 m/s, 300° | - | - |
| 1778003293 | 26.67° C | 40% | 1009.6 hPa | 0 mm | 0.89 m/s, 159° | - | - |
| 1778003021 | 26.67° C | 44% | 1009.8 hPa | 0 mm | 2.24 m/s, 249° | - | - |
| 1778002770 | 26.11° C | 42% | 1009.8 hPa | 0 mm | 0.45 m/s, 286° | - | - |
| 1778002740 | 26.11° C | 42% | 1009.8 hPa | 0 mm | 0.45 m/s, 295° | - | - |
| 1778002533 | 26.11° C | 44% | 1009.8 hPa | 0 mm | 0 m/s | - | - |
* Rain latest hour (hover to see other rain measurements)
** Current wind speed in m/s (hover to see current wind gust speed)